WFDK1: Walnut River, Winfield, KS

Data processed at Thu Jun 14 2018 23:05


All information presented herein is the property of the government of the United States of America and may be revised or deleted at any time without prior notice.
Dissemination of this information without the expressed written consent of the Public Affairs Office, Tulsa District U.S. Army Corps of Engineers is strictly prohibited.
These data are gathered electronically and, as presented, have not undergone any form of quality control. These data are not guaranteed to be valid or correct.
Go to home page.
Go to station list.

Upstream stations:

Downstream station:
Previous Day
Next Day
Current Day
    
SHEF ID:       WFDK1     WALNUT R AT WINFIELD, KS
STATION TYPE:  

               PRECIP     STAGE  RIV-FLOW  BAT-LOAD
                   in        ft       cfs      volt
              Ccp-Rev   Ccp-Rev   Ccp-Rev   Ccp-Rev
(US/Central)
06/12 00:00      0.00      1.49       171     12.81
06/12 01:00      0.00      1.49       171     12.73
06/12 02:00      0.00      1.47       165     12.73
06/12 03:00      0.00      1.47       165     12.73
06/12 04:00      0.00      1.46       163     12.65
06/12 05:00      0.00      1.47       165     12.65
06/12 06:00      0.00      1.47       165     12.65
06/12 07:00      0.00      1.46       163     12.65
06/12 08:00      0.00      1.45       160     12.65
06/12 09:00      0.00      1.43       155     12.65
06/12 10:00      0.00      1.43       155     12.97
06/12 11:00      0.00      1.42       153     13.29
06/12 12:00      0.00      1.42       153     13.44
06/12 13:00      0.00      1.43       155     13.37
06/12 14:00      0.00      1.42       153     13.29
06/12 15:00      0.00      1.41       150     13.29
06/12 16:00      0.00      1.42       153     13.21
06/12 17:00      0.00      1.41       150     13.21
06/12 18:00      0.00      1.40       148     13.21
06/12 19:00      0.00      1.42       153     13.05
06/12 20:00      0.00      1.42       153     12.97
06/12 21:00      0.00      1.42       153     12.81
06/12 22:00      0.00      1.40       148     12.81
06/12 23:00      0.00      1.40       148     12.81